This is the latest recevied weather packets stored in our database for station/object DB0RV-13. If no packets are shown the sender has not sent any weather packets the latest 10 day(s).
| Time | Temp. | Humidity | Pressure | Rain* | Wind** | Luminosity | Snow |
|---|---|---|---|---|---|---|---|
| 1777789501 | 12.78° C | 67% | 1015.1 hPa | - | - | - | - |
| 1777789202 | 12.78° C | 67% | 1015 hPa | - | - | - | - |
| 1777788901 | 12.22° C | 69% | 1015.1 hPa | - | - | - | - |
| 1777788602 | 11.67° C | 70% | 1015.1 hPa | - | - | - | - |
| 1777788301 | 12.22° C | 67% | 1015 hPa | - | - | - | - |
| 1777788001 | 11.67° C | 67% | 1015 hPa | - | - | - | - |
| 1777787702 | 11.11° C | 70% | 1015.1 hPa | - | - | - | - |
| 1777787401 | 11.11° C | 68% | 1015 hPa | - | - | - | - |
| 1777787102 | 11.11° C | 69% | 1015 hPa | - | - | - | - |
| 1777786801 | 10.56° C | 70% | 1015 hPa | - | - | - | - |
| 1777786502 | 10.56° C | 69% | 1015 hPa | - | - | - | - |
| 1777786201 | 10.56° C | 70% | 1015 hPa | - | - | - | - |
| 1777785902 | 10° C | 71% | 1015 hPa | - | - | - | - |
| 1777785601 | 10° C | 71% | 1015 hPa | - | - | - | - |
| 1777785302 | 10° C | 71% | 1015 hPa | - | - | - | - |
| 1777785002 | 10° C | 71% | 1015.1 hPa | - | - | - | - |
| 1777784702 | 9.44° C | 73% | 1015.1 hPa | - | - | - | - |
| 1777784402 | 8.89° C | 73% | 1015.2 hPa | - | - | - | - |
| 1777784101 | 9.44° C | 74% | 1015.1 hPa | - | - | - | - |
| 1777783802 | 9.44° C | 73% | 1015.2 hPa | - | - | - | - |
| 1777783501 | 9.44° C | 73% | 1015.1 hPa | - | - | - | - |
| 1777783202 | 8.89° C | 75% | 1015.1 hPa | - | - | - | - |
| 1777782901 | 9.44° C | 74% | 1015.1 hPa | - | - | - | - |
| 1777782602 | 9.44° C | 73% | 1015.1 hPa | - | - | - | - |
| 1777782302 | 8.89° C | 74% | 1015.2 hPa | - | - | - | - |
* Rain since midnight (hover to see other rain measurements)
** Current wind speed in m/s (hover to see current wind gust speed)